| time (UTC) | temp F | wind direction | speed MPH | gust MPH | rain 1hr in | rain 24hr in | rain mn in | humidity % | barometer mb |
| 20260504045530 | 59 | 32 | 5.0 | 6.0 | 0.00 | 0.00 | 0.00 | 33 | 1010.0 |
| 20260504045029 | 60 | 32 | 4.0 | 5.0 | 0.00 | 0.00 | 0.00 | 33 | 1010.0 |
| 20260504044530 | 60 | 62 | 4.0 | 5.0 | 0.00 | 0.00 | 0.00 | 31 | 1010.0 |
| 20260504044029 | 60 | 37 | 4.0 | 5.0 | 0.00 | 0.00 | 0.00 | 31 | 1010.0 |
| 20260504043529 | 61 | 44 | 4.0 | 5.0 | 0.00 | 0.00 | 0.00 | 29 | 1010.0 |
| 20260504043029 | 61 | 50 | 5.0 | 7.0 | 0.00 | 0.00 | 0.00 | 28 | 1010.0 |
| 20260504042532 | 62 | 38 | 6.0 | 8.0 | 0.00 | 0.00 | 0.00 | 30 | 1010.0 |
| 20260504042030 | 62 | 79 | 1.0 | 3.0 | 0.00 | 0.00 | 0.00 | 27 | 1010.0 |
| 20260504041530 | 63 | 74 | 1.0 | 3.0 | 0.00 | 0.00 | 0.00 | 26 | 1010.0 |
| 20260504041029 | 62 | 138 | 4.0 | 6.0 | 0.00 | 0.00 | 0.00 | 26 | 1010.0 |
| 20260504040530 | 62 | 70 | 4.0 | 4.0 | 0.00 | 0.00 | 0.00 | 28 | 1010.0 |
| 20260504040029 | 62 | 32 | 3.0 | 4.0 | 0.00 | 0.00 | 0.00 | 27 | 1010.0 |
| 20260504035529 | 62 | 0 | 0.0 | 0.0 | 0.00 | 0.00 | 0.00 | 28 | 1010.0 |
| 20260504035030 | 63 | 43 | 1.0 | 2.0 | 0.00 | 0.00 | 0.00 | 26 | 1010.0 |
| 20260504034529 | 63 | 159 | 0.0 | 0.0 | 0.00 | 0.00 | 0.00 | 26 | 1010.0 |
| 20260504034030 | 63 | 89 | 1.0 | 2.0 | 0.00 | 0.00 | 0.00 | 25 | 1009.0 |
| 20260504033530 | 64 | 190 | 0.0 | 0.0 | 0.00 | 0.00 | 0.00 | 25 | 1009.0 |
| 20260504033029 | 64 | 122 | 0.0 | 0.0 | 0.00 | 0.00 | 0.00 | 25 | 1009.0 |
| 20260504032529 | 64 | 16 | 0.0 | 1.0 | 0.00 | 0.00 | 0.00 | 26 | 1009.0 |
| 20260504032031 | 65 | 0 | 0.0 | 0.0 | 0.00 | 0.00 | 0.00 | 25 | 1009.0 |
| 20260504031529 | 65 | 184 | 0.0 | 0.0 | 0.00 | 0.00 | 0.00 | 22 | 1009.0 |
| 20260504031029 | 65 | 0 | 0.0 | 0.0 | 0.00 | 0.00 | 0.00 | 21 | 1009.0 |
| 20260504030530 | 66 | 344 | 3.0 | 3.0 | 0.00 | 0.00 | 0.00 | 21 | 1009.0 |
| 20260504030030 | 67 | 301 | 3.0 | 4.0 | 0.00 | 0.00 | 0.00 | 20 | 1009.0 |
| 20260504025529 | 67 | 346 | 7.0 | 8.0 | 0.00 | 0.00 | 0.00 | 19 | 1009.0 |
| 20260504025030 | 67 | 345 | 8.0 | 10.0 | 0.00 | 0.00 | 0.00 | 18 | 1009.0 |
| 20260504024529 | 67 | 352 | 6.0 | 7.0 | 0.00 | 0.00 | 0.00 | 18 | 1009.0 |
| 20260504024029 | 68 | 355 | 8.0 | 10.0 | 0.00 | 0.00 | 0.00 | 17 | 1009.0 |
| 20260504023530 | 68 | 348 | 10.0 | 12.0 | 0.00 | 0.00 | 0.00 | 17 | 1009.0 |
| 20260504023029 | 68 | 355 | 8.0 | 11.0 | 0.00 | 0.00 | 0.00 | 18 | 1009.0 |
| 20260504022530 | 68 | 353 | 6.0 | 7.0 | 0.00 | 0.00 | 0.00 | 17 | 1009.0 |
| 20260504022029 | 69 | 343 | 7.0 | 9.0 | 0.00 | 0.00 | 0.00 | 17 | 1009.0 |
| 20260504021530 | 69 | 347 | 8.0 | 11.0 | 0.00 | 0.00 | 0.00 | 16 | 1009.0 |
| 20260504021031 | 69 | 347 | 8.0 | 10.0 | 0.00 | 0.00 | 0.00 | 16 | 1009.0 |
| 20260504020529 | 69 | 333 | 9.0 | 13.0 | 0.00 | 0.00 | 0.00 | 16 | 1009.0 |
| 20260504020030 | 69 | 344 | 8.0 | 10.0 | 0.00 | 0.00 | 0.00 | 17 | 1009.0 |
| 20260504015529 | 70 | 339 | 6.0 | 9.0 | 0.00 | 0.00 | 0.00 | 17 | 1009.0 |
| 20260504015029 | 70 | 330 | 0.0 | 1.0 | 0.00 | 0.00 | 0.00 | 17 | 1009.0 |
| 20260504014530 | 70 | 324 | 6.0 | 8.0 | 0.00 | 0.00 | 0.00 | 17 | 1009.0 |
| 20260504014030 | 71 | 335 | 4.0 | 7.0 | 0.00 | 0.00 | 0.00 | 17 | 1009.0 |
| 20260504013530 | 71 | 324 | 3.0 | 4.0 | 0.00 | 0.00 | 0.00 | 17 | 1009.0 |
| 20260504013029 | 71 | 334 | 3.0 | 4.0 | 0.00 | 0.00 | 0.00 | 16 | 1009.0 |
| 20260504012530 | 71 | 340 | 7.0 | 9.0 | 0.00 | 0.00 | 0.00 | 15 | 1010.0 |
| 20260504012030 | 72 | 340 | 6.0 | 7.0 | 0.00 | 0.00 | 0.00 | 15 | 1010.0 |
| 20260504011529 | 72 | 340 | 4.0 | 5.0 | 0.00 | 0.00 | 0.00 | 14 | 1010.0 |
| 20260504011029 | 72 | 332 | 5.0 | 5.0 | 0.00 | 0.00 | 0.00 | 14 | 1010.0 |
| 20260504010530 | 72 | 296 | 2.0 | 3.0 | 0.00 | 0.00 | 0.00 | 15 | 1010.0 |
| 20260504010034 | 72 | 0 | 0.0 | 0.0 | 0.00 | 0.00 | 0.00 | 16 | 1010.0 |
| 20260504005529 | 72 | 0 | 0.0 | 0.0 | 0.00 | 0.00 | 0.00 | 16 | 1010.0 |
| 20260504005030 | 73 | 0 | 0.0 | 0.0 | 0.00 | 0.00 | 0.00 | 16 | 1010.0 |
| 20260504004530 | 73 | 233 | 0.0 | 3.0 | 0.00 | 0.00 | 0.00 | 15 | 1010.0 |
| 20260504004029 | 73 | 0 | 0.0 | 0.0 | 0.00 | 0.00 | 0.00 | 16 | 1010.0 |
| 20260504003529 | 73 | 267 | 0.0 | 0.0 | 0.00 | 0.00 | 0.00 | 16 | 1010.0 |
| 20260504003030 | 73 | 319 | 1.0 | 4.0 | 0.00 | 0.00 | 0.00 | 14 | 1010.0 |
| 20260504002529 | 74 | 312 | 1.0 | 4.0 | 0.00 | 0.00 | 0.00 | 14 | 1010.0 |
| 20260504002029 | 74 | 149 | 5.0 | 9.0 | 0.00 | 0.00 | 0.00 | 11 | 1010.0 |
| 20260504001530 | 74 | 161 | 9.0 | 13.0 | 0.00 | 0.00 | 0.00 | 11 | 1010.0 |
| 20260504001029 | 74 | 99 | 2.0 | 4.0 | 0.00 | 0.00 | 0.00 | 11 | 1010.0 |
| 20260504000531 | 74 | 133 | 0.0 | 3.0 | 0.00 | 0.00 | 0.00 | 12 | 1010.0 |
| 20260504000029 | 74 | 30 | 4.0 | 8.0 | 0.00 | 0.00 | 0.00 | 12 | 1010.0 |
| 20260503235529 | 74 | 149 | 4.0 | 8.0 | 0.00 | 0.00 | 0.00 | 12 | 1010.0 |
| 20260503235029 | 74 | 347 | 4.0 | 6.0 | 0.00 | 0.00 | 0.00 | 12 | 1010.0 |
| 20260503234529 | 74 | 3 | 4.0 | 9.0 | 0.00 | 0.00 | 0.00 | 12 | 1010.0 |
| 20260503234029 | 73 | 334 | 4.0 | 6.0 | 0.00 | 0.00 | 0.00 | 11 | 1010.0 |
| 20260503233530 | 73 | 352 | 2.0 | 5.0 | 0.00 | 0.00 | 0.00 | 11 | 1010.0 |
| 20260503233029 | 73 | 166 | 5.0 | 6.0 | 0.00 | 0.00 | 0.00 | 10 | 1010.0 |
| 20260503232529 | 73 | 95 | 4.0 | 7.0 | 0.00 | 0.00 | 0.00 | 13 | 1010.0 |
| 20260503232029 | 73 | 120 | 4.0 | 10.0 | 0.00 | 0.00 | 0.00 | 13 | 1010.0 |
| 20260503231529 | 73 | 4 | 1.0 | 5.0 | 0.00 | 0.00 | 0.00 | 13 | 1010.0 |
| 20260503231030 | 73 | 22 | 7.0 | 10.0 | 0.00 | 0.00 | 0.00 | 12 | 1010.0 |
| 20260503230530 | 73 | 159 | 6.0 | 10.0 | 0.00 | 0.00 | 0.00 | 12 | 1010.0 |
| 20260503230029 | 74 | 148 | 5.0 | 8.0 | 0.00 | 0.00 | 0.00 | 11 | 1010.0 |
| 20260503225530 | 74 | 176 | 2.0 | 5.0 | 0.00 | 0.00 | 0.00 | 15 | 1010.0 |
| 20260503225029 | 73 | 251 | 1.0 | 4.0 | 0.00 | 0.00 | 0.00 | 15 | 1011.0 |
| 20260503224530 | 73 | 170 | 0.0 | 0.0 | 0.00 | 0.00 | 0.00 | 13 | 1011.0 |
| 20260503224029 | 73 | 342 | 4.0 | 5.0 | 0.00 | 0.00 | 0.00 | 11 | 1011.0 |
| 20260503223529 | 73 | 153 | 7.0 | 9.0 | 0.00 | 0.00 | 0.00 | 11 | 1011.0 |
| 20260503223029 | 73 | 158 | 4.0 | 10.0 | 0.00 | 0.00 | 0.00 | 12 | 1011.0 |
| 20260503222530 | 73 | 29 | 8.0 | 10.0 | 0.00 | 0.00 | 0.00 | 12 | 1011.0 |
| 20260503222029 | 73 | 96 | 2.0 | 7.0 | 0.00 | 0.00 | 0.00 | 11 | 1011.0 |
| 20260503221529 | 73 | 165 | 8.0 | 10.0 | 0.00 | 0.00 | 0.00 | 10 | 1011.0 |
| 20260503221029 | 73 | 175 | 8.0 | 10.0 | 0.00 | 0.00 | 0.00 | 13 | 1011.0 |
| 20260503220530 | 73 | 191 | 3.0 | 7.0 | 0.00 | 0.00 | 0.00 | 13 | 1011.0 |
| 20260503220029 | 73 | 168 | 8.0 | 10.0 | 0.00 | 0.00 | 0.00 | 12 | 1011.0 |
| 20260503215529 | 73 | 153 | 10.0 | 17.0 | 0.00 | 0.00 | 0.00 | 12 | 1011.0 |
| 20260503215029 | 73 | 167 | 5.0 | 8.0 | 0.00 | 0.00 | 0.00 | 12 | 1011.0 |
| 20260503214530 | 73 | 22 | 7.0 | 9.0 | 0.00 | 0.00 | 0.00 | 11 | 1011.0 |
| 20260503214029 | 73 | 319 | 4.0 | 7.0 | 0.00 | 0.00 | 0.00 | 11 | 1012.0 |
| 20260503213530 | 73 | 74 | 2.0 | 8.0 | 0.00 | 0.00 | 0.00 | 12 | 1012.0 |
| 20260503213030 | 74 | 148 | 11.0 | 17.0 | 0.00 | 0.00 | 0.00 | 12 | 1012.0 |
| 20260503212529 | 73 | 65 | 4.0 | 9.0 | 0.00 | 0.00 | 0.00 | 12 | 1012.0 |
| 20260503212030 | 73 | 149 | 4.0 | 7.0 | 0.00 | 0.00 | 0.00 | 13 | 1012.0 |
| 20260503211529 | 73 | 158 | 13.0 | 18.0 | 0.00 | 0.00 | 0.00 | 12 | 1012.0 |
| 20260503211029 | 73 | 154 | 11.0 | 14.0 | 0.00 | 0.00 | 0.00 | 12 | 1012.0 |
| 20260503210529 | 73 | 184 | 4.0 | 9.0 | 0.00 | 0.00 | 0.00 | 14 | 1012.0 |
| 20260503210029 | 73 | 151 | 6.0 | 13.0 | 0.00 | 0.00 | 0.00 | 12 | 1012.0 |
| 20260503205530 | 73 | 175 | 7.0 | 10.0 | 0.00 | 0.00 | 0.00 | 16 | 1013.0 |
| 20260503205030 | 72 | 143 | 5.0 | 10.0 | 0.00 | 0.00 | 0.00 | 15 | 1013.0 |
| 20260503204529 | 72 | 344 | 2.0 | 6.0 | 0.00 | 0.00 | 0.00 | 14 | 1013.0 |
| 20260503204030 | 73 | 152 | 8.0 | 9.0 | 0.00 | 0.00 | 0.00 | 14 | 1013.0 |
| 20260503203529 | 73 | 165 | 6.0 | 10.0 | 0.00 | 0.00 | 0.00 | 13 | 1013.0 |
| 20260503203030 | 73 | 223 | 2.0 | 6.0 | 0.00 | 0.00 | 0.00 | 16 | 1013.0 |
| 20260503202529 | 72 | 323 | 1.0 | 7.0 | 0.00 | 0.00 | 0.00 | 16 | 1013.0 |
| 20260503202030 | 73 | 160 | 10.0 | 15.0 | 0.00 | 0.00 | 0.00 | 15 | 1013.0 |
| 20260503201529 | 73 | 152 | 12.0 | 17.0 | 0.00 | 0.00 | 0.00 | 15 | 1013.0 |
| 20260503201030 | 72 | 300 | 1.0 | 8.0 | 0.00 | 0.00 | 0.00 | 19 | 1013.0 |
| 20260503200529 | 73 | 165 | 10.0 | 15.0 | 0.00 | 0.00 | 0.00 | 17 | 1013.0 |
| 20260503200029 | 73 | 165 | 6.0 | 9.0 | 0.00 | 0.00 | 0.00 | 19 | 1013.0 |
| 20260503195530 | 73 | 109 | 3.0 | 8.0 | 0.00 | 0.00 | 0.00 | 19 | 1014.0 |
| 20260503195029 | 73 | 154 | 2.0 | 10.0 | 0.00 | 0.00 | 0.00 | 19 | 1014.0 |
| 20260503194530 | 72 | 143 | 6.0 | 13.0 | 0.00 | 0.00 | 0.00 | 17 | 1014.0 |
| 20260503194029 | 72 | 178 | 5.0 | 9.0 | 0.00 | 0.00 | 0.00 | 20 | 1014.0 |
| 20260503193529 | 72 | 210 | 4.0 | 9.0 | 0.00 | 0.00 | 0.00 | 17 | 1014.0 |
| 20260503193029 | 73 | 162 | 4.0 | 9.0 | 0.00 | 0.00 | 0.00 | 17 | 1014.0 |
| 20260503192530 | 73 | 137 | 4.0 | 6.0 | 0.00 | 0.00 | 0.00 | 22 | 1014.0 |
| 20260503192030 | 72 | 151 | 6.0 | 11.0 | 0.00 | 0.00 | 0.00 | 18 | 1014.0 |
| 20260503191529 | 72 | 152 | 5.0 | 13.0 | 0.00 | 0.00 | 0.00 | 20 | 1014.0 |
| 20260503191030 | 71 | 292 | 3.0 | 6.0 | 0.00 | 0.00 | 0.00 | 19 | 1014.0 |
| 20260503190529 | 71 | 150 | 4.0 | 9.0 | 0.00 | 0.00 | 0.00 | 20 | 1014.0 |
| 20260503190029 | 71 | 155 | 7.0 | 10.0 | 0.00 | 0.00 | 0.00 | 18 | 1014.0 |
| 20260503185529 | 71 | 147 | 9.0 | 15.0 | 0.00 | 0.00 | 0.00 | 19 | 1014.0 |
| 20260503185029 | 71 | 156 | 6.0 | 11.0 | 0.00 | 0.00 | 0.00 | 22 | 1014.0 |
| 20260503184529 | 70 | 337 | 2.0 | 7.0 | 0.00 | 0.00 | 0.00 | 20 | 1015.0 |
| 20260503184031 | 70 | 313 | 4.0 | 9.0 | 0.00 | 0.00 | 0.00 | 21 | 1015.0 |
| 20260503183530 | 70 | 154 | 8.0 | 15.0 | 0.00 | 0.00 | 0.00 | 19 | 1015.0 |
| 20260503183030 | 71 | 170 | 2.0 | 7.0 | 0.00 | 0.00 | 0.00 | 23 | 1015.0 |
| 20260503182529 | 71 | 120 | 0.0 | 4.0 | 0.00 | 0.00 | 0.00 | 20 | 1015.0 |
| 20260503182030 | 70 | 233 | 0.0 | 2.0 | 0.00 | 0.00 | 0.00 | 23 | 1015.0 |
| 20260503181530 | 70 | 0 | 0.0 | 0.0 | 0.00 | 0.00 | 0.00 | 23 | 1015.0 |
| 20260503181030 | 69 | 151 | 1.0 | 4.0 | 0.00 | 0.00 | 0.00 | 22 | 1015.0 |
| 20260503180530 | 69 | 0 | 0.0 | 0.0 | 0.00 | 0.00 | 0.00 | 23 | 1015.0 |
| 20260503180030 | 69 | 214 | 1.0 | 4.0 | 0.00 | 0.00 | 0.00 | 27 | 1015.0 |
| 20260503175530 | 69 | 170 | 7.0 | 9.0 | 0.00 | 0.00 | 0.00 | 23 | 1015.0 |
| 20260503175029 | 69 | 177 | 3.0 | 5.0 | 0.00 | 0.00 | 0.00 | 24 | 1015.0 |
| 20260503174529 | 69 | 312 | 3.0 | 4.0 | 0.00 | 0.00 | 0.00 | 27 | 1015.0 |
| 20260503174030 | 69 | 150 | 5.0 | 7.0 | 0.00 | 0.00 | 0.00 | 24 | 1015.0 |
| 20260503173530 | 69 | 175 | 3.0 | 4.0 | 0.00 | 0.00 | 0.00 | 25 | 1015.0 |
| 20260503173030 | 68 | 0 | 4.0 | 7.0 | 0.00 | 0.00 | 0.00 | 24 | 1015.0 |
| 20260503172530 | 67 | 134 | 4.0 | 7.0 | 0.00 | 0.00 | 0.00 | 24 | 1015.0 |
| 20260503172030 | 67 | 31 | 2.0 | 5.0 | 0.00 | 0.00 | 0.00 | 25 | 1015.0 |
| 20260503171530 | 67 | 121 | 6.0 | 8.0 | 0.00 | 0.00 | 0.00 | 28 | 1016.0 |
| 20260503171030 | 67 | 163 | 6.0 | 8.0 | 0.00 | 0.00 | 0.00 | 26 | 1016.0 |
| 20260503170529 | 67 | 26 | 4.0 | 6.0 | 0.00 | 0.00 | 0.00 | 27 | 1016.0 |
| 20260503150529 | 59 | 103 | 6.0 | 7.0 | 0.00 | 0.00 | 0.00 | 34 | 1016.0 |
| 20260503131030 | 49 | 0 | 0.0 | 0.0 | 0.00 | 0.00 | 0.00 | 52 | 1016.0 |
| 20260503130529 | 49 | 1 | 2.0 | 2.0 | 0.00 | 0.00 | 0.00 | 49 | 1015.0 |
| 20260503110530 | 52 | 87 | 5.0 | 6.0 | 0.00 | 0.00 | 0.00 | 37 | 1016.0 |
| 20260503081532 | 52 | 103 | 3.0 | 3.0 | 0.00 | 0.00 | 0.00 | 35 | 1016.0 |
| 20260503081029 | 52 | 110 | 4.0 | 4.0 | 0.00 | 0.00 | 0.00 | 37 | 1016.0 |
| 20260503080530 | 52 | 71 | 4.0 | 4.0 | 0.00 | 0.00 | 0.00 | 39 | 1016.0 |
| 20260503072529 | 53 | 103 | 5.0 | 5.0 | 0.00 | 0.00 | 0.00 | 35 | 1016.0 |
| 20260503072031 | 53 | 96 | 5.0 | 5.0 | 0.00 | 0.00 | 0.00 | 37 | 1016.0 |
| 20260503071529 | 53 | 88 | 5.0 | 5.0 | 0.00 | 0.00 | 0.00 | 36 | 1016.0 |
| 20260503071030 | 53 | 83 | 5.0 | 5.0 | 0.00 | 0.00 | 0.00 | 36 | 1016.0 |
| 20260503070529 | 53 | 100 | 5.0 | 5.0 | 0.00 | 0.00 | 0.00 | 35 | 1016.0 |
| 20260503055030 | 56 | 13 | 3.0 | 4.0 | 0.00 | 0.00 | 0.00 | 29 | 1016.0 |
| 20260503054529 | 57 | 25 | 2.0 | 3.0 | 0.00 | 0.00 | 0.00 | 29 | 1016.0 |
| 20260503054032 | 57 | 1 | 2.0 | 4.0 | 0.00 | 0.00 | 0.00 | 29 | 1016.0 |
| 20260503053530 | 58 | 358 | 4.0 | 6.0 | 0.00 | 0.00 | 0.00 | 28 | 1016.0 |
| 20260503053030 | 58 | 65 | 5.0 | 8.0 | 0.00 | 0.00 | 0.00 | 27 | 1016.0 |
| 20260503052530 | 58 | 92 | 5.0 | 8.0 | 0.00 | 0.00 | 0.00 | 26 | 1016.0 |
| 20260503052029 | 58 | 96 | 6.0 | 12.0 | 0.00 | 0.00 | 0.00 | 26 | 1015.0 |
| 20260503051531 | 58 | 122 | 5.0 | 7.0 | 0.00 | 0.00 | 0.00 | 26 | 1015.0 |
| 20260503051030 | 58 | 5 | 0.0 | 0.0 | 0.00 | 0.00 | 0.00 | 31 | 1015.0 |
| 20260503050530 | 58 | 0 | 0.0 | 0.0 | 0.00 | 0.00 | 0.00 | 30 | 1015.0 |
| 20260503050029 | 59 | 345 | 0.0 | 1.0 | 0.00 | 0.00 | 0.00 | 31 | 1015.0 |